[[{"header":{"parameterUnit":"m.s-1","parameterCategory":1,"la1":30.2991,"la2":30.254,"lo1":-89.0895,"lo2":-89.0444,"dy":0.0017,"dx":0.0017,"nx":28,"ny":28,"refTime":"2024-05-30T09:00:00:Z","depth":0,"parameterNumber":2,"parameterNumberName":"U-component_of_WINDS"},"data":[0,0,0,0,0,0,0,0,0,0,0,0,0,0,0,0,0,0,0,0,0,0,0,0,0,0,0,0,0,0,0,0,0,0,0,0,0,0,0,0,0,0,0,0,0,0,0,0,0,0,0,0,0,0,0,0,0,0,-2.7681,-2.7681,0,-2.7712,-2.7712,-2.7713,-2.7608,-2.7604,-2.7601,-2.7598,-2.7632,-2.7636,-2.7639,0,0,0,0,0,0,0,0,0,0,0,0,0,-2.7533,-2.7536,-2.7681,-2.7681,-2.7682,-2.7712,-2.7712,-2.7713,-2.7608,-2.7604,-2.76,-2.7597,-2.7631,-2.7635,-2.764,0,0,0,0,0,0,0,0,0,0,0,0,0,-2.7584,-2.7537,-2.7681,-2.7633,-2.7629,-2.7712,-2.7712,-2.7713,-2.7609,-2.7604,-2.7599,-2.7595,-2.7629,-2.7635,-2.764,-2.7771,0,0,-2.7658,-2.7661,0,0,0,0,0,0,0,0,-2.7581,-2.759,-2.764,-2.7637,-2.7632,-2.7651,-2.7672,-2.7733,-2.761,-2.7617,-2.7598,-2.7593,-2.7642,-2.7647,-2.7663,-2.7773,-2.7774,-2.7659,-2.7662,-2.7664,-2.7666,0,0,0,0,0,0,0,-2.7578,-2.7588,-2.7693,-2.7641,-2.7636,-2.7611,-2.7613,-2.7683,-2.7656,-2.7616,-2.7608,-2.7613,-2.7639,-2.7658,-2.7663,-2.7775,-2.7658,-2.7663,-2.7667,-2.7669,-2.7995,-2.8,0,0,0,0,0,0,-2.758,-2.7585,-2.7692,-2.7694,-2.7594,-2.7617,-2.7619,-2.765,-2.7655,-2.7651,-2.7617,-2.7608,-2.765,-2.7656,-2.7664,-2.7819,-2.7664,-2.767,-2.7673,-2.799,-2.7996,-2.8002,0,0,0,0,0,0,-2.7578,-2.7591,-2.7691,-2.7638,-2.7649,-2.7625,-2.766,-2.7653,-2.7671,-2.7656,-2.7651,-2.7641,-2.7647,-2.7656,-2.7746,-2.7819,-2.7672,-2.7678,-2.7984,-2.7992,-2.7999,-2.813,0,0,0,0,0,0,-2.7574,-2.759,-2.764,-2.764,-2.7652,-2.7772,-2.7664,-2.7657,-2.7681,-2.767,-2.7677,-2.7673,-2.7644,-2.7738,-2.7751,-2.7824,-2.7682,-2.7977,-2.7987,-2.7997,-2.8119,-2.8141,-2.816,0,0,0,0,0,-2.7569,-2.7675,-2.7643,-2.7656,-2.7713,-2.7777,-2.7784,-2.7747,-2.7687,-2.7737,-2.7727,-2.7673,-2.7808,-2.7748,-2.7762,-2.7838,-2.7973,-2.7985,-2.7996,-2.811,-2.8137,-2.8159,0,0,0,0,0,0,-2.7685,-2.7674,-2.7638,-2.7747,-2.7764,-2.7759,-2.782,-2.7776,-2.781,-2.7798,-2.7751,-2.7754,-2.7853,-2.7853,-2.7787,-2.7965,-2.788,-2.7895,-2.7962,-2.7987,-2.8007,-2.8006,-2.7687,0,0,0,0,0,-2.7723,-2.7775,-2.7763,-2.7861,-2.7871,-2.7845,-2.7871,-2.7841,-2.7856,-2.7863,-2.7859,-2.7877,-2.7923,-2.7955,-2.7996,-2.8117,-2.8119,-2.8177,-2.8197,-2.8214,-2.8229,-2.8295,-2.8321,-2.804,-2.804,-2.804,0,0,-2.7802,-2.7803,-2.7839,-2.7884,-2.7893,-2.795,-2.7851,-2.7914,-2.7956,-2.7872,-2.7958,-2.7956,-2.7972,-2.8079,-2.8126,-2.8083,-2.8306,-2.8229,-2.8243,-2.8248,-2.831,-2.8336,-2.836,-2.8048,-2.8047,-2.8046,0,0,-2.7977,-2.7982,-2.8065,-2.8076,-2.8091,-2.8072,-2.8092,-2.8094,-2.809,-2.8175,-2.8114,-2.8162,-2.8243,-2.8257,-2.8275,-2.8456,-2.8408,-2.847,-2.8579,-2.8644,-2.8666,-2.8686,-2.8753,-2.8777,-2.8484,-2.8485,-2.8485,0,-2.8074,-2.8156,-2.8113,-2.8181,-2.8203,-2.8129,-2.8214,-2.8227,-2.8255,-2.8273,-2.8223,-2.8324,-2.8329,-2.8439,-2.8484,-2.85,-2.8523,-2.8471,-2.8667,-2.8686,-2.8703,-2.8766,-2.8791,-2.8492,-2.8492,-2.8491,-2.849,0,-2.8276,-2.8334,-2.8399,-2.8428,-2.8458,-2.8534,-2.8503,-2.8538,-2.8505,-2.8492,-2.858,-2.8584,-2.8626,-2.8649,-2.8618,-2.8756,-2.8729,-2.8674,-2.8588,-2.8739,-2.8797,-2.8821,-2.8503,-2.8501,-2.8498,-2.8497,0,0,-2.8526,-2.853,-2.8555,-2.8568,-2.8579,-2.8623,-2.8696,-2.8737,-2.8769,-2.879,-2.8852,-2.8921,-2.8871,-2.8891,-2.8861,-2.8918,-2.9064,-2.8856,-2.8855,-2.8896,-2.9218,-2.9262,-2.929,-2.9031,-2.9035,-2.9038,-2.9218,0,-2.8699,-2.8824,-2.8787,-2.8913,-2.8967,-2.8898,-2.8961,-2.8976,-2.8966,-2.901,-2.8999,-2.905,-2.8978,-2.8991,-2.9043,-2.9035,-2.9128,-2.9021,-2.9089,-2.9092,-2.909,-2.932,-2.9366,-2.9535,-2.924,-2.9244,-2.9247,0,-2.8919,-2.8949,-2.9081,-2.9084,-2.9105,-2.9163,-2.9198,-2.9241,-2.9256,-2.9245,-2.9269,-2.9227,-2.9299,-2.9211,-2.9312,-2.924,-2.9265,-2.9265,-2.9271,-2.9278,-2.9181,-2.9337,-2.9588,-2.9615,-2.9282,-2.9279,-2.9277,0,-2.9091,-2.9165,-2.9253,-2.9266,-2.9272,-2.9314,-2.9319,-2.9329,-2.9356,-2.9387,-2.9404,-2.9443,-2.9465,-2.9496,-2.9466,-2.9404,-2.9572,-2.9481,-2.9567,-2.9568,-2.9608,-2.9606,-2.987,-2.962,-2.9619,-2.9619,-2.9618,0,-2.929,-2.9374,-2.9331,-2.9386,-2.9478,-2.9435,-2.9528,-2.9524,-2.9534,-2.9587,-2.9529,-2.9581,-2.9536,-2.9585,-2.9561,-2.965,-2.9659,-2.9654,-2.9647,-2.9661,-2.9662,-2.9679,-2.9667,-2.9626,-2.9624,-2.9623,-2.9622,0,-2.9499,-2.9474,-2.9566,-2.9563,-2.9565,-2.9633,-2.9631,-2.9682,-2.9668,-2.9737,-2.975,-2.9728,-2.9782,-2.9754,-2.9809,-2.9794,-2.9909,-2.9885,-2.9904,-2.9899,-2.9988,-2.9981,-3.0274,-3.0311,-3.0035,-3.0037,-3.0039,0,-2.963,-2.9692,-2.9697,-2.9728,-2.9737,-2.9788,-2.9816,-2.9775,-2.9807,-2.9829,-2.9878,-2.9927,-2.9964,-3.0053,-3.0042,-3.0085,-3.0063,-3.0163,-3.0069,-3.0082,-3.0068,-3.0066,-3.0073,-3.0183,-3.0186,-3.0188,-3.019,0,-2.9864,-2.9849,-2.989,-2.9928,-2.9963,-2.9991,-3.0014,-3.0043,-3.0004,-3.0042,-3.0096,-3.0125,-3.0182,-3.0231,-3.0268,-3.0273,-3.0227,-3.022,-3.0242,-3.0258,-3.0268,-3.0267,-2.9959,-3.0214,-3.0211,-3.021,-3.0208,-3.0208,-3.004,-3.0093,-3.0105,-3.0154,-3.0167,-3.019,-3.0238,-3.023,-3.0274,-3.0317,-3.029,-3.0355,-3.0369,-3.0414,-3.0425,-3.0475,-3.0436,-3.0468,-3.0477,-3.0486,-3.0499,-3.0258,-3.0482,-3.0481,-3.048,-3.048,-3.0479,0,-3.0274,-3.0278,-3.0323,-3.0357,-3.0396,-3.0347,-3.037,-3.0406,-3.0464,-3.048,-3.0518,-3.0581,-3.0629,-3.0622,-3.0666,-3.0708,-3.0688,-3.0721,-3.0719,-3.0722,-3.0531,-3.0508,-3.0737,-3.0737,-3.0737,-3.0737,-3.0737,-3.0737,-3.04,-3.0489,-3.0475,-3.0569,-3.0572,-3.0635,-3.0653,-3.0674,-3.0688,-3.0761,-3.08,-3.0795,-3.0803,-3.0847,-3.0889,-3.0886,-3.0906,-3.0948,-3.0938,-3.076,-3.0735,-3.0711,-3.0689,-3.0952,-3.0953,-3.1124,-3.1126,-3.1127]},{"header":{"parameterUnit":"m.s-1","parameterCategory":1,"la1":30.2991,"la2":30.254,"lo1":-89.0895,"lo2":-89.0444,"dy":0.0017,"dx":0.0017,"nx":28,"ny":28,"refTime":"2024-05-30T09:00:00:Z","depth":0,"parameterNumber":3,"parameterNumberName":"V-component_of_WINDS"},"data":[0,0,0,0,0,0,0,0,0,0,0,0,0,0,0,0,0,0,0,0,0,0,0,0,0,0,0,0,0,0,0,0,0,0,0,0,0,0,0,0,0,0,0,0,0,0,0,0,0,0,0,0,0,0,0,0,0,0,-2.6906,-2.6906,0,-2.693,-2.6931,-2.6931,-2.69,-2.6899,-2.6898,-2.6897,-2.6919,-2.6921,-2.6922,0,0,0,0,0,0,0,0,0,0,0,0,0,-2.6828,-2.683,-2.6906,-2.6906,-2.6906,-2.693,-2.6931,-2.6931,-2.69,-2.6899,-2.6898,-2.6896,-2.6919,-2.6921,-2.6923,0,0,0,0,0,0,0,0,0,0,0,0,0,-2.6858,-2.683,-2.6906,-2.6894,-2.6893,-2.693,-2.6931,-2.6931,-2.6901,-2.6899,-2.6897,-2.6896,-2.6918,-2.692,-2.6923,-2.6971,0,0,-2.693,-2.6931,0,0,0,0,0,0,0,0,-2.6857,-2.6861,-2.6895,-2.6895,-2.6894,-2.6911,-2.6911,-2.6944,-2.6901,-2.6898,-2.6897,-2.6895,-2.6917,-2.692,-2.6928,-2.6972,-2.6973,-2.6931,-2.6932,-2.6933,-2.6934,0,0,0,0,0,0,0,-2.6855,-2.686,-2.6915,-2.6896,-2.6895,-2.6886,-2.6889,-2.6918,-2.6917,-2.6898,-2.6896,-2.6899,-2.6917,-2.6926,-2.6928,-2.6974,-2.693,-2.6933,-2.6934,-2.6935,-2.7058,-2.706,0,0,0,0,0,0,-2.6854,-2.6858,-2.6914,-2.6916,-2.6871,-2.6889,-2.6892,-2.6907,-2.6916,-2.6916,-2.6901,-2.6898,-2.6922,-2.6926,-2.6929,-2.6986,-2.6933,-2.6935,-2.6937,-2.7056,-2.7059,-2.7061,0,0,0,0,0,0,-2.6853,-2.686,-2.6913,-2.6887,-2.6893,-2.6892,-2.6909,-2.6908,-2.6917,-2.6918,-2.6918,-2.691,-2.6921,-2.6926,-2.6961,-2.6986,-2.6936,-2.6939,-2.7054,-2.7057,-2.706,-2.7101,0,0,0,0,0,0,-2.6851,-2.6859,-2.6879,-2.6887,-2.6894,-2.6946,-2.6911,-2.691,-2.6922,-2.6918,-2.6927,-2.6927,-2.692,-2.6958,-2.6964,-2.6989,-2.6941,-2.7052,-2.7056,-2.7059,-2.7097,-2.7105,-2.7111,0,0,0,0,0,-2.6848,-2.6889,-2.688,-2.6887,-2.6919,-2.6948,-2.6952,-2.6944,-2.6924,-2.6943,-2.6944,-2.6927,-2.6983,-2.6962,-2.6968,-2.6994,-2.705,-2.7055,-2.7058,-2.7094,-2.7103,-2.7111,0,0,0,0,0,0,-2.6882,-2.689,-2.688,-2.6925,-2.6936,-2.6943,-2.6966,-2.6954,-2.697,-2.6966,-2.6955,-2.6957,-2.6995,-2.6998,-2.6974,-2.7041,-2.7013,-2.7019,-2.7038,-2.7047,-2.7053,-2.7051,-2.6943,0,0,0,0,0,-2.6895,-2.6919,-2.6924,-2.6963,-2.6969,-2.6967,-2.6979,-2.6972,-2.6983,-2.6987,-2.6991,-2.7001,-2.702,-2.7034,-2.7052,-2.7097,-2.7098,-2.7119,-2.7126,-2.7131,-2.7136,-2.7159,-2.7168,-2.7074,-2.7074,-2.7074,0,0,-2.6921,-2.6929,-2.6944,-2.697,-2.6978,-2.7002,-2.6971,-2.6998,-2.7015,-2.6991,-2.7025,-2.7028,-2.7038,-2.7079,-2.7097,-2.7083,-2.7162,-2.7136,-2.7141,-2.7142,-2.7164,-2.7173,-2.7181,-2.7077,-2.7076,-2.7076,0,0,-2.6982,-2.6991,-2.7024,-2.7032,-2.7045,-2.7043,-2.7051,-2.706,-2.7061,-2.7095,-2.7077,-2.7097,-2.7131,-2.7139,-2.7148,-2.7211,-2.7196,-2.7217,-2.7253,-2.7276,-2.7283,-2.729,-2.7312,-2.732,-2.7222,-2.7222,-2.7222,0,-2.7013,-2.705,-2.7042,-2.707,-2.7082,-2.7062,-2.7094,-2.7103,-2.712,-2.7128,-2.7112,-2.7155,-2.7161,-2.7202,-2.7218,-2.7226,-2.7234,-2.7216,-2.7283,-2.729,-2.7296,-2.7316,-2.7325,-2.7225,-2.7224,-2.7224,-2.7224,0,-2.7087,-2.7113,-2.7138,-2.7156,-2.717,-2.7201,-2.7196,-2.7211,-2.7203,-2.7202,-2.7237,-2.7243,-2.7262,-2.7271,-2.7263,-2.7312,-2.7302,-2.7285,-2.7256,-2.7307,-2.7326,-2.7334,-2.7228,-2.7227,-2.7227,-2.7226,0,0,-2.717,-2.7184,-2.7193,-2.7201,-2.7213,-2.7232,-2.7261,-2.728,-2.7293,-2.7306,-2.7329,-2.7358,-2.7342,-2.7352,-2.7345,-2.7365,-2.7414,-2.7345,-2.7345,-2.7357,-2.7467,-2.748,-2.7489,-2.7404,-2.7406,-2.7407,-2.7466,0,-2.723,-2.7281,-2.7275,-2.7323,-2.7346,-2.7328,-2.7353,-2.7362,-2.7362,-2.7381,-2.738,-2.7401,-2.7379,-2.7385,-2.7404,-2.7404,-2.7436,-2.74,-2.7425,-2.7426,-2.7422,-2.7499,-2.7513,-2.7568,-2.7473,-2.7475,-2.7476,0,-2.7307,-2.7324,-2.7375,-2.7383,-2.7393,-2.7415,-2.7432,-2.7451,-2.7461,-2.7459,-2.747,-2.7459,-2.7486,-2.7458,-2.7495,-2.7471,-2.748,-2.7482,-2.7484,-2.7485,-2.7453,-2.7502,-2.7586,-2.7594,-2.7487,-2.7486,-2.7486,0,-2.7362,-2.7396,-2.7431,-2.7439,-2.7449,-2.7466,-2.7471,-2.7479,-2.7491,-2.7505,-2.7513,-2.753,-2.7539,-2.7552,-2.7545,-2.7525,-2.7584,-2.7555,-2.7582,-2.7583,-2.7595,-2.7595,-2.7681,-2.7603,-2.7602,-2.7602,-2.7602,0,-2.743,-2.7461,-2.7456,-2.7478,-2.7512,-2.7504,-2.7538,-2.7541,-2.7548,-2.7569,-2.7553,-2.7573,-2.7563,-2.7582,-2.7576,-2.7608,-2.7612,-2.7611,-2.7609,-2.7612,-2.7612,-2.7618,-2.7614,-2.7605,-2.7604,-2.7604,-2.7603,0,-2.7496,-2.7494,-2.7531,-2.7538,-2.754,-2.7566,-2.7571,-2.7591,-2.759,-2.7616,-2.7622,-2.7619,-2.764,-2.7635,-2.7658,-2.7654,-2.7694,-2.7687,-2.769,-2.7689,-2.7717,-2.7714,-2.7809,-2.7821,-2.7736,-2.7737,-2.7737,0,-2.7539,-2.7564,-2.7574,-2.7587,-2.7593,-2.7615,-2.7627,-2.7619,-2.7632,-2.7645,-2.7663,-2.7683,-2.7698,-2.7732,-2.7732,-2.7749,-2.7742,-2.7775,-2.7745,-2.7747,-2.7742,-2.7741,-2.7743,-2.7781,-2.7782,-2.7782,-2.7783,0,-2.7616,-2.7614,-2.7632,-2.7651,-2.7666,-2.768,-2.7692,-2.7703,-2.7696,-2.7712,-2.7734,-2.7746,-2.7769,-2.7788,-2.7804,-2.7808,-2.7794,-2.7793,-2.78,-2.7803,-2.7804,-2.7803,-2.7706,-2.779,-2.779,-2.7789,-2.7789,-2.7788,-2.7672,-2.7692,-2.7702,-2.7724,-2.7732,-2.7744,-2.7762,-2.7764,-2.7782,-2.7801,-2.7795,-2.782,-2.7828,-2.7848,-2.7853,-2.7872,-2.7859,-2.787,-2.7873,-2.7875,-2.7879,-2.7801,-2.7875,-2.7874,-2.7874,-2.7874,-2.7874,0,-2.7747,-2.7753,-2.7772,-2.779,-2.7807,-2.7793,-2.7806,-2.782,-2.7842,-2.7852,-2.7868,-2.7892,-2.7911,-2.7912,-2.7929,-2.7944,-2.7938,-2.7949,-2.7947,-2.7948,-2.7889,-2.7881,-2.7953,-2.7953,-2.7953,-2.7953,-2.7953,-2.7953,-2.7788,-2.7822,-2.7821,-2.7858,-2.7863,-2.7888,-2.7896,-2.7906,-2.7914,-2.7942,-2.7958,-2.7959,-2.7965,-2.7982,-2.7999,-2.7998,-2.8005,-2.8018,-2.8016,-2.796,-2.7952,-2.7945,-2.7937,-2.802,-2.802,-2.8073,-2.8074,-2.8074]}]]